contact:dominique.lefevre@mio.osupytheas.fr, maurice.libes@osupytheas.fr, didier.mallarino@osupytheas.fr
Project:EMSO http://www.emso-fr.org/EMSO-France
Depth: 2436.0 m
Title:EMSO Ligure Ouest : Data MII capteur MICROCAT
DateTime_Computer,Latitude,Longitude,Temperature,Conductivity,Pressure,DateTime_Instrument
DateTime_Computer,Latitude,Longitude,degC,S m-1,dbar,DateTime_Instrument
2023-08-06T00:02:53Z,42.805,6.029,13.3031,4.60107,2470.717,2023-8-06T02:05:11Z
2023-08-06T00:05:56Z,42.805,6.029,13.3043,4.60119,2470.717,2023-8-06T02:08:14Z
2023-08-06T00:08:59Z,42.805,6.029,13.3060,4.60152,2470.693,2023-8-06T02:11:18Z
2023-08-06T00:12:02Z,42.805,6.029,13.3058,4.60107,2470.717,2023-8-06T02:14:21Z
2023-08-06T00:15:05Z,42.805,6.029,13.3058,4.60155,2470.717,2023-8-06T02:17:24Z
2023-08-06T00:18:08Z,42.805,6.029,13.3065,4.60170,2470.73,2023-8-06T02:20:27Z
2023-08-06T00:21:11Z,42.805,6.029,13.3067,4.60127,2470.73,2023-8-06T02:23:30Z
2023-08-06T00:24:14Z,42.805,6.029,13.3072,4.60134,2470.693,2023-8-06T02:26:33Z
2023-08-06T00:27:17Z,42.805,6.029,13.3070,4.60115,2470.717,2023-8-06T02:29:36Z
2023-08-06T00:30:21Z,42.805,6.029,13.3080,4.60125,2470.717,2023-8-06T02:32:39Z
2023-08-06T00:33:24Z,42.805,6.029,13.3066,4.60154,2470.754,2023-8-06T02:35:42Z
2023-08-06T00:36:27Z,42.805,6.029,13.3069,4.60165,2470.717,2023-8-06T02:38:45Z
2023-08-06T00:39:30Z,42.805,6.029,13.3052,4.60169,2470.707,2023-8-06T02:41:48Z
2023-08-06T00:42:33Z,42.805,6.029,13.3085,4.60161,2470.707,2023-8-06T02:44:51Z
2023-08-06T00:45:36Z,42.805,6.029,13.3079,4.60169,2470.717,2023-8-06T02:47:55Z
2023-08-06T00:48:39Z,42.805,6.029,13.3066,4.60145,2470.707,2023-8-06T02:50:58Z
2023-08-06T00:51:42Z,42.805,6.029,13.3080,4.60168,2470.707,2023-8-06T02:54:01Z
2023-08-06T00:54:45Z,42.805,6.029,13.3063,4.60142,2470.707,2023-8-06T02:57:04Z
2023-08-06T00:57:48Z,42.805,6.029,13.3065,4.60170,2470.693,2023-8-06T03:00:07Z
2023-08-06T01:00:51Z,42.805,6.029,13.3056,4.60158,2470.67,2023-8-06T03:03:10Z
2023-08-06T01:03:54Z,42.805,6.029,13.3099,4.60152,2470.693,2023-8-06T03:06:13Z
2023-08-06T01:06:57Z,42.805,6.029,13.3102,4.60140,2470.684,2023-8-06T03:09:16Z
2023-08-06T01:10:01Z,42.805,6.029,13.3089,4.60175,2470.717,2023-8-06T03:12:19Z
2023-08-06T01:13:04Z,42.805,6.029,13.3086,4.60156,2470.707,2023-8-06T03:15:22Z
2023-08-06T01:16:07Z,42.805,6.029,13.3062,4.60188,2470.707,2023-8-06T03:18:25Z
2023-08-06T01:19:10Z,42.805,6.029,13.3058,4.60207,2470.707,2023-8-06T03:21:28Z
2023-08-06T01:22:13Z,42.805,6.029,13.3054,4.60201,2470.67,2023-8-06T03:24:31Z
2023-08-06T01:25:16Z,42.805,6.029,13.3067,4.60166,2470.693,2023-8-06T03:27:34Z
2023-08-06T01:28:19Z,42.805,6.029,13.3078,4.60157,2470.684,2023-8-06T03:30:38Z
2023-08-06T01:31:22Z,42.805,6.029,13.3088,4.60156,2470.661,2023-8-06T03:33:41Z
2023-08-06T01:34:25Z,42.805,6.029,13.3052,4.60193,2470.661,2023-8-06T03:36:44Z
2023-08-06T01:37:28Z,42.805,6.029,13.3055,4.60129,2470.707,2023-8-06T03:39:47Z
2023-08-06T01:40:31Z,42.805,6.029,13.3070,4.60122,2470.646,2023-8-06T03:42:50Z
2023-08-06T01:43:34Z,42.805,6.029,13.3085,4.60137,2470.646,2023-8-06T03:45:53Z
2023-08-06T01:46:38Z,42.805,6.029,13.3069,4.60130,2470.646,2023-8-06T03:48:56Z
2023-08-06T01:49:41Z,42.805,6.029,13.3068,4.60140,2470.661,2023-8-06T03:51:59Z
2023-08-06T01:52:44Z,42.805,6.029,13.3055,4.60179,2470.684,2023-8-06T03:55:02Z
2023-08-06T01:55:47Z,42.805,6.029,13.3069,4.60146,2470.646,2023-8-06T03:58:05Z
2023-08-06T01:58:50Z,42.805,6.029,13.3083,4.60156,2470.646,2023-8-06T04:01:08Z
2023-08-06T02:01:53Z,42.805,6.029,13.3078,4.60134,2470.637,2023-8-06T04:04:11Z
2023-08-06T02:04:56Z,42.805,6.029,13.3104,4.60134,2470.67,2023-8-06T04:07:15Z
2023-08-06T02:07:59Z,42.805,6.029,13.3078,4.60156,2470.646,2023-8-06T04:10:18Z
2023-08-06T02:11:02Z,42.805,6.029,13.3073,4.60117,2470.661,2023-8-06T04:13:21Z
2023-08-06T02:14:05Z,42.805,6.029,13.3082,4.60150,2470.6,2023-8-06T04:16:24Z
2023-08-06T02:17:08Z,42.805,6.029,13.3092,4.60134,2470.624,2023-8-06T04:19:27Z
2023-08-06T02:20:11Z,42.805,6.029,13.3098,4.60118,2470.646,2023-8-06T04:22:30Z
2023-08-06T02:23:14Z,42.805,6.029,13.3099,4.60110,2470.637,2023-8-06T04:25:33Z
2023-08-06T02:26:17Z,42.805,6.029,13.3087,4.60119,2470.6,2023-8-06T04:28:36Z
2023-08-06T02:29:21Z,42.805,6.029,13.3082,4.60117,2470.624,2023-8-06T04:31:39Z
2023-08-06T02:32:24Z,42.805,6.029,13.3082,4.60117,2470.624,2023-8-06T04:34:42Z
2023-08-06T02:35:27Z,42.805,6.029,13.3084,4.60148,2470.637,2023-8-06T04:37:45Z
2023-08-06T02:38:30Z,42.805,6.029,13.3083,4.60117,2470.624,2023-8-06T04:40:48Z
2023-08-06T02:41:33Z,42.805,6.029,13.3091,4.60117,2470.6,2023-8-06T04:43:51Z
2023-08-06T02:44:36Z,42.805,6.029,13.3036,4.60120,2470.637,2023-8-06T04:46:55Z
2023-08-06T02:47:39Z,42.805,6.029,13.3036,4.60195,2470.624,2023-8-06T04:49:58Z
2023-08-06T02:50:42Z,42.805,6.029,13.3032,4.60107,2470.6,2023-8-06T04:53:01Z
2023-08-06T02:53:45Z,42.805,6.029,13.3031,4.60151,2470.591,2023-8-06T04:56:04Z
2023-08-06T02:56:48Z,42.805,6.029,13.3036,4.60112,2470.637,2023-8-06T04:59:07Z
2023-08-06T02:59:51Z,42.805,6.029,13.3031,4.60107,2470.577,2023-8-06T05:02:10Z
2023-08-06T03:02:54Z,42.805,6.029,13.3030,4.60103,2470.6,2023-8-06T05:05:13Z
2023-08-06T03:05:58Z,42.805,6.029,13.3027,4.60102,2470.563,2023-8-06T05:08:16Z
2023-08-06T03:09:01Z,42.805,6.029,13.3031,4.60162,2470.614,2023-8-06T05:11:19Z
2023-08-06T03:12:04Z,42.805,6.029,13.3070,4.60121,2470.6,2023-8-06T05:14:22Z
2023-08-06T03:15:07Z,42.805,6.029,13.3029,4.60144,2470.614,2023-8-06T05:17:25Z
2023-08-06T03:18:10Z,42.805,6.029,13.3038,4.60116,2470.614,2023-8-06T05:20:28Z
2023-08-06T03:21:13Z,42.805,6.029,13.3047,4.60149,2470.591,2023-8-06T05:23:31Z
2023-08-06T03:24:16Z,42.805,6.029,13.3028,4.60114,2470.553,2023-8-06T05:26:35Z
2023-08-06T03:27:19Z,42.805,6.029,13.3033,4.60102,2470.591,2023-8-06T05:29:38Z
2023-08-06T03:30:22Z,42.805,6.029,13.3029,4.60099,2470.614,2023-8-06T05:32:41Z
2023-08-06T03:33:25Z,42.805,6.029,13.3033,4.60093,2470.591,2023-8-06T05:35:44Z
2023-08-06T03:36:28Z,42.805,6.029,13.3028,4.60102,2470.577,2023-8-06T05:38:47Z
2023-08-06T03:39:31Z,42.805,6.029,13.3034,4.60183,2470.577,2023-8-06T05:41:50Z
2023-08-06T03:42:35Z,42.805,6.029,13.3031,4.60180,2470.591,2023-8-06T05:44:53Z
2023-08-06T03:45:38Z,42.805,6.029,13.3032,4.60107,2470.553,2023-8-06T05:47:56Z
2023-08-06T03:48:41Z,42.805,6.029,13.3031,4.60108,2470.553,2023-8-06T05:50:59Z
2023-08-06T03:51:44Z,42.805,6.029,13.3028,4.60105,2470.591,2023-8-06T05:54:02Z
2023-08-06T03:54:47Z,42.805,6.029,13.3029,4.60099,2470.577,2023-8-06T05:57:05Z
2023-08-06T03:57:50Z,42.805,6.029,13.3028,4.60097,2470.553,2023-8-06T06:00:08Z
2023-08-06T04:00:53Z,42.805,6.029,13.3027,4.60096,2470.577,2023-8-06T06:03:12Z
2023-08-06T04:03:56Z,42.805,6.029,13.3030,4.60097,2470.567,2023-8-06T06:06:15Z
2023-08-06T04:06:59Z,42.805,6.029,13.3032,4.60103,2470.553,2023-8-06T06:09:18Z
2023-08-06T04:10:02Z,42.805,6.029,13.3031,4.60094,2470.591,2023-8-06T06:12:21Z
2023-08-06T04:13:05Z,42.805,6.029,13.3028,4.60095,2470.591,2023-8-06T06:15:24Z
2023-08-06T04:16:08Z,42.805,6.029,13.3027,4.60093,2470.567,2023-8-06T06:18:27Z
2023-08-06T04:19:11Z,42.805,6.029,13.3030,4.60094,2470.6,2023-8-06T06:21:30Z
2023-08-06T04:22:15Z,42.805,6.029,13.3033,4.60094,2470.553,2023-8-06T06:24:33Z
2023-08-06T04:25:18Z,42.805,6.029,13.3030,4.60094,2470.567,2023-8-06T06:27:36Z
2023-08-06T04:28:21Z,42.805,6.029,13.3026,4.60092,2470.544,2023-8-06T06:30:39Z
2023-08-06T04:31:24Z,42.805,6.029,13.3029,4.60093,2470.577,2023-8-06T06:33:42Z
2023-08-06T04:34:27Z,42.805,6.029,13.3032,4.60089,2470.577,2023-8-06T06:36:45Z
2023-08-06T04:37:30Z,42.805,6.029,13.3028,4.60095,2470.553,2023-8-06T06:39:48Z
2023-08-06T04:40:33Z,42.805,6.029,13.3027,4.60091,2470.544,2023-8-06T06:42:52Z
2023-08-06T04:43:36Z,42.805,6.029,13.3027,4.60092,2470.553,2023-8-06T06:45:55Z
2023-08-06T04:46:39Z,42.805,6.029,13.3029,4.60098,2470.553,2023-8-06T06:48:58Z
2023-08-06T04:49:42Z,42.805,6.029,13.3026,4.60090,2470.567,2023-8-06T06:52:01Z
2023-08-06T04:52:45Z,42.805,6.029,13.3028,4.60093,2470.53,2023-8-06T06:55:04Z
2023-08-06T04:55:48Z,42.805,6.029,13.3028,4.60091,2470.53,2023-8-06T06:58:07Z
2023-08-06T04:58:51Z,42.805,6.029,13.3026,4.60096,2470.53,2023-8-06T07:01:10Z
2023-08-06T05:01:55Z,42.805,6.029,13.3030,4.60099,2470.553,2023-8-06T07:04:13Z
2023-08-06T05:04:58Z,42.805,6.029,13.3024,4.60092,2470.577,2023-8-06T07:07:16Z
2023-08-06T05:08:01Z,42.805,6.029,13.3029,4.60092,2470.507,2023-8-06T07:10:19Z
2023-08-06T05:11:04Z,42.805,6.029,13.3029,4.60090,2470.553,2023-8-06T07:13:22Z
2023-08-06T05:14:07Z,42.805,6.029,13.3031,4.60089,2470.53,2023-8-06T07:16:25Z
2023-08-06T05:17:10Z,42.805,6.029,13.3031,4.60089,2470.507,2023-8-06T07:19:28Z
2023-08-06T05:20:13Z,42.805,6.029,13.3028,4.60094,2470.53,2023-8-06T07:22:32Z
2023-08-06T05:23:16Z,42.805,6.029,13.3029,4.60091,2470.53,2023-8-06T07:25:35Z
2023-08-06T05:26:19Z,42.805,6.029,13.3029,4.60090,2470.544,2023-8-06T07:28:38Z
2023-08-06T05:29:22Z,42.805,6.029,13.3030,4.60089,2470.53,2023-8-06T07:31:41Z
2023-08-06T05:32:25Z,42.805,6.029,13.3031,4.60089,2470.53,2023-8-06T07:34:44Z
2023-08-06T05:35:28Z,42.805,6.029,13.3031,4.60088,2470.544,2023-8-06T07:37:47Z
2023-08-06T05:38:32Z,42.805,6.029,13.3029,4.60089,2470.553,2023-8-06T07:40:50Z
2023-08-06T05:41:35Z,42.805,6.029,13.3028,4.60089,2470.567,2023-8-06T07:43:53Z
2023-08-06T05:44:38Z,42.805,6.029,13.3030,4.60088,2470.553,2023-8-06T07:46:56Z
2023-08-06T05:47:41Z,42.805,6.029,13.3028,4.60088,2470.577,2023-8-06T07:49:59Z
2023-08-06T05:50:44Z,42.805,6.029,13.3029,4.60089,2470.553,2023-8-06T07:53:02Z
2023-08-06T05:53:47Z,42.805,6.029,13.3028,4.60091,2470.577,2023-8-06T07:56:05Z
2023-08-06T05:56:50Z,42.805,6.029,13.3029,4.60089,2470.553,2023-8-06T07:59:09Z
2023-08-06T05:59:53Z,42.805,6.029,13.3033,4.60090,2470.567,2023-8-06T08:02:12Z
2023-08-06T06:02:56Z,42.805,6.029,13.3029,4.60092,2470.6,2023-8-06T08:05:15Z
2023-08-06T06:05:59Z,42.805,6.029,13.3031,4.60091,2470.553,2023-8-06T08:08:18Z
2023-08-06T06:09:02Z,42.805,6.029,13.3029,4.60092,2470.577,2023-8-06T08:11:21Z
2023-08-06T06:12:05Z,42.805,6.029,13.3031,4.60092,2470.591,2023-8-06T08:14:24Z
2023-08-06T06:15:08Z,42.805,6.029,13.3031,4.60094,2470.577,2023-8-06T08:17:27Z
2023-08-06T06:18:12Z,42.805,6.029,13.3028,4.60093,2470.553,2023-8-06T08:20:30Z
2023-08-06T06:21:15Z,42.805,6.029,13.3026,4.60091,2470.591,2023-8-06T08:23:33Z
2023-08-06T06:24:18Z,42.805,6.029,13.3029,4.60094,2470.577,2023-8-06T08:26:36Z
2023-08-06T06:27:21Z,42.805,6.029,13.3031,4.60091,2470.553,2023-8-06T08:29:39Z
2023-08-06T06:30:24Z,42.805,6.029,13.3029,4.60092,2470.591,2023-8-06T08:32:42Z
2023-08-06T06:33:27Z,42.805,6.029,13.3026,4.60090,2470.577,2023-8-06T08:35:45Z
2023-08-06T06:36:30Z,42.805,6.029,13.3029,4.60090,2470.553,2023-8-06T08:38:48Z
2023-08-06T06:39:33Z,42.805,6.029,13.3027,4.60099,2470.577,2023-8-06T08:41:51Z
2023-08-06T06:42:36Z,42.805,6.029,13.3029,4.60088,2470.553,2023-8-06T08:44:54Z
2023-08-06T06:45:39Z,42.805,6.029,13.3031,4.60089,2470.614,2023-8-06T08:47:57Z
2023-08-06T06:48:42Z,42.805,6.029,13.3026,4.60090,2470.591,2023-8-06T08:51:01Z
2023-08-06T06:51:45Z,42.805,6.029,13.3029,4.60090,2470.6,2023-8-06T08:54:04Z
2023-08-06T06:54:48Z,42.805,6.029,13.3029,4.60090,2470.6,2023-8-06T08:57:07Z
2023-08-06T06:57:51Z,42.805,6.029,13.3032,4.60092,2470.577,2023-8-06T09:00:10Z
2023-08-06T07:00:54Z,42.805,6.029,13.3033,4.60098,2470.637,2023-8-06T09:03:13Z
2023-08-06T07:03:57Z,42.805,6.029,13.3026,4.60089,2470.577,2023-8-06T09:06:16Z
2023-08-06T07:07:00Z,42.805,6.029,13.3030,4.60091,2470.637,2023-8-06T09:09:19Z
2023-08-06T07:10:04Z,42.805,6.029,13.3028,4.60089,2470.6,2023-8-06T09:12:22Z
2023-08-06T07:13:07Z,42.805,6.029,13.3029,4.60090,2470.624,2023-8-06T09:15:25Z
2023-08-06T07:16:10Z,42.805,6.029,13.3032,4.60091,2470.577,2023-8-06T09:18:28Z
2023-08-06T07:19:13Z,42.805,6.029,13.3030,4.60104,2470.6,2023-8-06T09:21:31Z
2023-08-06T07:22:16Z,42.805,6.029,13.3028,4.60088,2470.577,2023-8-06T09:24:34Z
2023-08-06T07:25:19Z,42.805,6.029,13.3032,4.60091,2470.614,2023-8-06T09:27:37Z
2023-08-06T07:28:22Z,42.805,6.029,13.3032,4.60089,2470.624,2023-8-06T09:30:41Z
2023-08-06T07:31:25Z,42.805,6.029,13.3031,4.60089,2470.614,2023-8-06T09:33:44Z
2023-08-06T07:34:28Z,42.805,6.029,13.3033,4.60088,2470.637,2023-8-06T09:36:47Z
2023-08-06T07:37:31Z,42.805,6.029,13.3026,4.60088,2470.6,2023-8-06T09:39:50Z
2023-08-06T07:40:34Z,42.805,6.029,13.3028,4.60089,2470.6,2023-8-06T09:42:53Z
2023-08-06T07:43:37Z,42.805,6.029,13.3026,4.60092,2470.637,2023-8-06T09:45:56Z
2023-08-06T07:46:41Z,42.805,6.029,13.3028,4.60089,2470.624,2023-8-06T09:48:59Z
2023-08-06T07:49:44Z,42.805,6.029,13.3032,4.60089,2470.6,2023-8-06T09:52:02Z
2023-08-06T07:52:47Z,42.805,6.029,13.3029,4.60089,2470.637,2023-8-06T09:55:05Z
2023-08-06T07:55:50Z,42.805,6.029,13.3032,4.60092,2470.661,2023-8-06T09:58:08Z
2023-08-06T07:58:53Z,42.805,6.029,13.3031,4.60096,2470.646,2023-8-06T10:01:11Z
2023-08-06T08:01:56Z,42.805,6.029,13.3028,4.60090,2470.624,2023-8-06T10:04:14Z
2023-08-06T08:04:59Z,42.805,6.029,13.3028,4.60089,2470.637,2023-8-06T10:07:18Z
2023-08-06T08:08:02Z,42.805,6.029,13.3026,4.60089,2470.693,2023-8-06T10:10:21Z
2023-08-06T08:11:05Z,42.805,6.029,13.3029,4.60090,2470.646,2023-8-06T10:13:24Z
2023-08-06T08:14:08Z,42.805,6.029,13.3029,4.60089,2470.646,2023-8-06T10:16:27Z
2023-08-06T08:17:11Z,42.805,6.029,13.3026,4.60088,2470.646,2023-8-06T10:19:30Z
2023-08-06T08:20:14Z,42.805,6.029,13.3029,4.60089,2470.67,2023-8-06T10:22:33Z
2023-08-06T08:23:17Z,42.805,6.029,13.3027,4.60089,2470.646,2023-8-06T10:25:36Z
2023-08-06T08:26:21Z,42.805,6.029,13.3030,4.60089,2470.646,2023-8-06T10:28:39Z
2023-08-06T08:29:24Z,42.805,6.029,13.3027,4.60089,2470.67,2023-8-06T10:31:42Z
2023-08-06T08:32:26Z,42.805,6.029,13.3028,4.60088,2470.684,2023-8-06T10:34:45Z
2023-08-06T08:35:30Z,42.805,6.029,13.3026,4.60089,2470.707,2023-8-06T10:37:48Z
2023-08-06T08:38:33Z,42.805,6.029,13.3027,4.60092,2470.67,2023-8-06T10:40:51Z
2023-08-06T08:41:36Z,42.805,6.029,13.3031,4.60090,2470.684,2023-8-06T10:43:54Z
2023-08-06T08:44:39Z,42.805,6.029,13.3033,4.60092,2470.684,2023-8-06T10:46:57Z
2023-08-06T08:47:42Z,42.805,6.029,13.3029,4.60094,2470.693,2023-8-06T10:50:00Z
2023-08-06T08:50:45Z,42.805,6.029,13.3031,4.60090,2470.684,2023-8-06T10:53:04Z
2023-08-06T08:53:48Z,42.805,6.029,13.3027,4.60091,2470.707,2023-8-06T10:56:07Z
2023-08-06T08:56:51Z,42.805,6.029,13.3031,4.60095,2470.707,2023-8-06T10:59:10Z
2023-08-06T08:59:54Z,42.805,6.029,13.3026,4.60095,2470.717,2023-8-06T11:02:13Z
2023-08-06T09:02:57Z,42.805,6.029,13.3030,4.60091,2470.693,2023-8-06T11:05:16Z
2023-08-06T09:06:00Z,42.805,6.029,13.3031,4.60092,2470.693,2023-8-06T11:08:19Z
2023-08-06T09:09:03Z,42.805,6.029,13.3029,4.60093,2470.693,2023-8-06T11:11:22Z
2023-08-06T09:12:07Z,42.805,6.029,13.3031,4.60091,2470.707,2023-8-06T11:14:25Z
2023-08-06T09:15:10Z,42.805,6.029,13.3029,4.60093,2470.707,2023-8-06T11:17:28Z
2023-08-06T09:18:13Z,42.805,6.029,13.3029,4.60091,2470.684,2023-8-06T11:20:31Z
2023-08-06T09:21:16Z,42.805,6.029,13.3033,4.60091,2470.67,2023-8-06T11:23:34Z
2023-08-06T09:24:19Z,42.805,6.029,13.3026,4.60093,2470.693,2023-8-06T11:26:37Z
2023-08-06T09:27:22Z,42.805,6.029,13.3029,4.60097,2470.717,2023-8-06T11:29:41Z
2023-08-06T09:30:25Z,42.805,6.029,13.3030,4.60092,2470.717,2023-8-06T11:32:44Z
2023-08-06T09:33:28Z,42.805,6.029,13.3026,4.60090,2470.707,2023-8-06T11:35:47Z
2023-08-06T09:36:31Z,42.805,6.029,13.3029,4.60090,2470.707,2023-8-06T11:38:50Z
2023-08-06T09:39:34Z,42.805,6.029,13.3029,4.60090,2470.717,2023-8-06T11:41:53Z
2023-08-06T09:42:37Z,42.805,6.029,13.3029,4.60092,2470.693,2023-8-06T11:44:56Z
2023-08-06T09:45:40Z,42.805,6.029,13.3031,4.60092,2470.703,2023-8-06T11:47:59Z
2023-08-06T09:48:44Z,42.805,6.029,13.3029,4.60090,2470.693,2023-8-06T11:51:02Z
2023-08-06T09:51:47Z,42.805,6.029,13.3029,4.60090,2470.717,2023-8-06T11:54:05Z
2023-08-06T09:54:50Z,42.805,6.029,13.3029,4.60090,2470.717,2023-8-06T11:57:08Z
2023-08-06T09:57:53Z,42.805,6.029,13.3029,4.60092,2470.717,2023-8-06T12:00:11Z
2023-08-06T10:00:56Z,42.805,6.029,13.3028,4.60093,2470.717,2023-8-06T12:03:14Z
2023-08-06T10:03:59Z,42.805,6.029,13.3029,4.60091,2470.707,2023-8-06T12:06:18Z
2023-08-06T10:07:02Z,42.805,6.029,13.3031,4.60092,2470.74,2023-8-06T12:09:21Z
2023-08-06T10:10:05Z,42.805,6.029,13.3030,4.60092,2470.693,2023-8-06T12:12:24Z
2023-08-06T10:13:08Z,42.805,6.029,13.3029,4.60091,2470.693,2023-8-06T12:15:27Z
2023-08-06T10:16:11Z,42.805,6.029,13.3033,4.60094,2470.693,2023-8-06T12:18:30Z
2023-08-06T10:19:14Z,42.805,6.029,13.3029,4.60089,2470.717,2023-8-06T12:21:33Z
2023-08-06T10:22:17Z,42.805,6.029,13.3033,4.60092,2470.703,2023-8-06T12:24:36Z
2023-08-06T10:25:21Z,42.805,6.029,13.3030,4.60092,2470.693,2023-8-06T12:27:39Z
2023-08-06T10:28:24Z,42.805,6.029,13.3026,4.60092,2470.754,2023-8-06T12:30:42Z
2023-08-06T10:31:25Z,42.805,6.029,13.3029,4.60090,2470.73,2023-8-06T12:33:44Z
2023-08-06T10:34:28Z,42.805,6.029,13.3029,4.60092,2470.693,2023-8-06T12:36:47Z
2023-08-06T10:37:31Z,42.805,6.029,13.3033,4.60103,2470.693,2023-8-06T12:39:50Z
2023-08-06T10:40:34Z,42.805,6.029,13.3029,4.60098,2470.754,2023-8-06T12:42:53Z
2023-08-06T10:43:37Z,42.805,6.029,13.3034,4.60094,2470.707,2023-8-06T12:45:56Z
2023-08-06T10:46:41Z,42.805,6.029,13.3030,4.60097,2470.73,2023-8-06T12:48:59Z
2023-08-06T10:49:44Z,42.805,6.029,13.3034,4.60097,2470.693,2023-8-06T12:52:02Z
2023-08-06T10:52:47Z,42.805,6.029,13.3030,4.60095,2470.73,2023-8-06T12:55:05Z
2023-08-06T10:55:50Z,42.805,6.029,13.3029,4.60102,2470.73,2023-8-06T12:58:08Z
2023-08-06T10:58:53Z,42.805,6.029,13.3031,4.60098,2470.73,2023-8-06T13:01:11Z
2023-08-06T11:01:56Z,42.805,6.029,13.3034,4.60098,2470.693,2023-8-06T13:04:14Z
2023-08-06T11:04:59Z,42.805,6.029,13.3033,4.60099,2470.717,2023-8-06T13:07:18Z
2023-08-06T11:08:02Z,42.805,6.029,13.3034,4.60097,2470.693,2023-8-06T13:10:21Z
2023-08-06T11:14:08Z,42.805,6.029,13.3030,4.60097,2470.754,2023-8-06T13:16:27Z
2023-08-06T11:17:11Z,42.805,6.029,13.3036,4.60104,2470.693,2023-8-06T13:19:30Z
2023-08-06T11:20:14Z,42.805,6.029,13.3048,4.60099,2470.717,2023-8-06T13:22:33Z
2023-08-06T11:23:17Z,42.805,6.029,13.3037,4.60097,2470.693,2023-8-06T13:25:36Z
2023-08-06T11:26:20Z,42.805,6.029,13.3063,4.60119,2470.754,2023-8-06T13:28:39Z
2023-08-06T11:29:24Z,42.805,6.029,13.3060,4.60117,2470.684,2023-8-06T13:31:42Z
2023-08-06T11:32:27Z,42.805,6.029,13.3056,4.60126,2470.67,2023-8-06T13:34:45Z
2023-08-06T11:35:30Z,42.805,6.029,13.3067,4.60128,2470.717,2023-8-06T13:37:48Z
2023-08-06T11:38:33Z,42.805,6.029,13.3067,4.60145,2470.717,2023-8-06T13:40:51Z
2023-08-06T11:41:36Z,42.805,6.029,13.3066,4.60147,2470.717,2023-8-06T13:43:54Z
2023-08-06T11:44:39Z,42.805,6.029,13.3062,4.60149,2470.684,2023-8-06T13:46:58Z
2023-08-06T11:47:42Z,42.805,6.029,13.3073,4.60125,2470.707,2023-8-06T13:50:01Z
2023-08-06T11:50:45Z,42.805,6.029,13.3071,4.60178,2470.67,2023-8-06T13:53:04Z
2023-08-06T11:53:48Z,42.805,6.029,13.3069,4.60155,2470.67,2023-8-06T13:56:07Z
2023-08-06T11:56:51Z,42.805,6.029,13.3062,4.60161,2470.707,2023-8-06T13:59:10Z
2023-08-06T11:59:54Z,42.805,6.029,13.3048,4.60155,2470.661,2023-8-06T14:02:13Z
2023-08-06T12:02:57Z,42.805,6.029,13.3060,4.60154,2470.717,2023-8-06T14:05:16Z
2023-08-06T12:06:01Z,42.805,6.029,13.3060,4.60143,2470.684,2023-8-06T14:08:19Z
2023-08-06T12:09:04Z,42.805,6.029,13.3050,4.60176,2470.73,2023-8-06T14:11:22Z
2023-08-06T12:12:07Z,42.805,6.029,13.3059,4.60183,2470.67,2023-8-06T14:14:25Z
2023-08-06T12:15:10Z,42.805,6.029,13.3056,4.60198,2470.707,2023-8-06T14:17:28Z
2023-08-06T12:18:13Z,42.805,6.029,13.3061,4.60175,2470.661,2023-8-06T14:20:31Z
2023-08-06T12:21:16Z,42.805,6.029,13.3048,4.60185,2470.73,2023-8-06T14:23:35Z
2023-08-06T12:24:19Z,42.805,6.029,13.3046,4.60162,2470.717,2023-8-06T14:26:38Z
2023-08-06T12:27:22Z,42.805,6.029,13.3048,4.60184,2470.693,2023-8-06T14:29:41Z
2023-08-06T12:30:25Z,42.805,6.029,13.3043,4.60172,2470.693,2023-8-06T14:32:44Z
2023-08-06T12:33:28Z,42.805,6.029,13.3062,4.60173,2470.684,2023-8-06T14:35:47Z
2023-08-06T12:36:31Z,42.805,6.029,13.3052,4.60173,2470.67,2023-8-06T14:38:50Z
2023-08-06T12:39:34Z,42.805,6.029,13.3063,4.60173,2470.661,2023-8-06T14:41:53Z
2023-08-06T12:42:38Z,42.805,6.029,13.3067,4.60184,2470.661,2023-8-06T14:44:56Z
2023-08-06T12:45:41Z,42.805,6.029,13.3061,4.60166,2470.684,2023-8-06T14:47:59Z
2023-08-06T12:48:44Z,42.805,6.029,13.3066,4.60169,2470.646,2023-8-06T14:51:02Z
2023-08-06T12:51:47Z,42.805,6.029,13.3058,4.60185,2470.707,2023-8-06T14:54:05Z
2023-08-06T12:54:50Z,42.805,6.029,13.3065,4.60144,2470.67,2023-8-06T14:57:08Z
2023-08-06T12:57:53Z,42.805,6.029,13.3042,4.60175,2470.646,2023-8-06T15:00:12Z
2023-08-06T13:00:56Z,42.805,6.029,13.3067,4.60170,2470.637,2023-8-06T15:03:15Z
2023-08-06T13:03:59Z,42.805,6.029,13.3063,4.60185,2470.67,2023-8-06T15:06:18Z
2023-08-06T13:07:02Z,42.805,6.029,13.3057,4.60167,2470.661,2023-8-06T15:09:21Z
2023-08-06T13:10:05Z,42.805,6.029,13.3054,4.60170,2470.646,2023-8-06T15:12:24Z
2023-08-06T13:13:08Z,42.805,6.029,13.3066,4.60174,2470.646,2023-8-06T15:15:27Z
2023-08-06T13:16:11Z,42.805,6.029,13.3053,4.60155,2470.661,2023-8-06T15:18:30Z
2023-08-06T13:19:15Z,42.805,6.029,13.3059,4.60180,2470.661,2023-8-06T15:21:33Z
2023-08-06T13:22:18Z,42.805,6.029,13.3056,4.60165,2470.624,2023-8-06T15:24:36Z
2023-08-06T13:25:21Z,42.805,6.029,13.3063,4.60182,2470.624,2023-8-06T15:27:39Z
2023-08-06T13:28:24Z,42.805,6.029,13.3048,4.60166,2470.637,2023-8-06T15:30:42Z
2023-08-06T13:31:27Z,42.805,6.029,13.3073,4.60173,2470.661,2023-8-06T15:33:45Z
2023-08-06T13:34:30Z,42.805,6.029,13.3055,4.60169,2470.661,2023-8-06T15:36:48Z
2023-08-06T13:37:33Z,42.805,6.029,13.3063,4.60173,2470.637,2023-8-06T15:39:52Z
2023-08-06T13:40:36Z,42.805,6.029,13.3069,4.60187,2470.646,2023-8-06T15:42:55Z
2023-08-06T13:43:39Z,42.805,6.029,13.3061,4.60166,2470.646,2023-8-06T15:45:58Z
2023-08-06T13:46:42Z,42.805,6.029,13.3069,4.60161,2470.646,2023-8-06T15:49:01Z
2023-08-06T13:49:45Z,42.805,6.029,13.3042,4.60147,2470.637,2023-8-06T15:52:04Z
2023-08-06T13:52:48Z,42.805,6.029,13.3050,4.60138,2470.624,2023-8-06T15:55:07Z
2023-08-06T13:55:52Z,42.805,6.029,13.3055,4.60171,2470.624,2023-8-06T15:58:10Z
2023-08-06T13:58:55Z,42.805,6.029,13.3076,4.60184,2470.624,2023-8-06T16:01:13Z
2023-08-06T14:01:58Z,42.805,6.029,13.3061,4.60174,2470.6,2023-8-06T16:04:16Z
2023-08-06T14:05:01Z,42.805,6.029,13.3053,4.60166,2470.637,2023-8-06T16:07:19Z
2023-08-06T14:08:04Z,42.805,6.029,13.3064,4.60180,2470.646,2023-8-06T16:10:22Z
2023-08-06T14:11:07Z,42.805,6.029,13.3056,4.60186,2470.624,2023-8-06T16:13:26Z
2023-08-06T14:14:10Z,42.805,6.029,13.3046,4.60162,2470.614,2023-8-06T16:16:29Z
2023-08-06T14:17:13Z,42.805,6.029,13.3046,4.60158,2470.637,2023-8-06T16:19:32Z
2023-08-06T14:20:16Z,42.805,6.029,13.3042,4.60147,2470.6,2023-8-06T16:22:35Z
2023-08-06T14:23:19Z,42.805,6.029,13.3041,4.60150,2470.624,2023-8-06T16:25:38Z
2023-08-06T14:26:22Z,42.805,6.029,13.3051,4.60177,2470.614,2023-8-06T16:28:41Z
2023-08-06T14:29:25Z,42.805,6.029,13.3062,4.60165,2470.637,2023-8-06T16:31:44Z
2023-08-06T14:32:28Z,42.805,6.029,13.3058,4.60179,2470.624,2023-8-06T16:34:46Z
2023-08-06T14:35:31Z,42.805,6.029,13.3051,4.60166,2470.624,2023-8-06T16:37:49Z
2023-08-06T14:38:34Z,42.805,6.029,13.3047,4.60146,2470.6,2023-8-06T16:40:52Z
2023-08-06T14:41:37Z,42.805,6.029,13.3041,4.60149,2470.624,2023-8-06T16:43:56Z
2023-08-06T14:44:40Z,42.805,6.029,13.3044,4.60167,2470.624,2023-8-06T16:46:59Z
2023-08-06T14:47:43Z,42.805,6.029,13.3056,4.60190,2470.637,2023-8-06T16:50:02Z
2023-08-06T14:50:46Z,42.805,6.029,13.3060,4.60171,2470.614,2023-8-06T16:53:05Z
2023-08-06T14:53:49Z,42.805,6.029,13.3051,4.60163,2470.61,2023-8-06T16:56:08Z
2023-08-06T14:56:52Z,42.805,6.029,13.3058,4.60193,2470.624,2023-8-06T16:59:11Z
2023-08-06T14:59:55Z,42.805,6.029,13.3070,4.60180,2470.624,2023-8-06T17:02:14Z
2023-08-06T15:02:59Z,42.805,6.029,13.3050,4.60188,2470.6,2023-8-06T17:05:17Z
2023-08-06T15:06:02Z,42.805,6.029,13.3076,4.60178,2470.614,2023-8-06T17:08:20Z
2023-08-06T15:09:05Z,42.805,6.029,13.3067,4.60177,2470.624,2023-8-06T17:11:23Z
2023-08-06T15:12:08Z,42.805,6.029,13.3046,4.60160,2470.614,2023-8-06T17:14:26Z
2023-08-06T15:15:11Z,42.805,6.029,13.3064,4.60185,2470.6,2023-8-06T17:17:29Z